This demonstration page uses our WeatherBlox Daily Observations layout. Learn more.

Hourly Observations for May 16, 2016

Temp ( °F °C ) Dew Point ( °F °C ) Humidity (%) Winds ( mph kmh ) Pressure ( in mb ) Visibility ( mi km ) Precip ( " mm )
12:15 am 00:15 Partly Cloudy 45 7 42 5.5 90 90 SE 9 15 30.12 1020 10 16.0934 0 0
12:35 am 00:35 Mostly Cloudy 44 6.8 42 5.5 92 92 ESE 8 13 30.12 1020 10 16.0934 0 0
12:55 am 00:55 Mostly Cloudy 44 6.7 42 5.6 93 93 ESE 8 13 30.15 1021 10 16.0934 0 0
1:15 am 01:15 Partly Cloudy 44 6.6 42 5.6 93 93 ESE 10 17 30.15 1021 10 16.0934 0 0
1:35 am 01:35 Partly Cloudy 44 6.7 42 5.7 93 93 ESE 12 19 30.15 1021 10 16.0934 0 0
1:55 am 01:55 Mostly Cloudy with Rain 44 6.6 42 5.6 93 93 ESE 10 17 30.09 1019 10 16.0934 0 0
2:15 am 02:15 Mostly Cloudy with Light Drizzle 44 6.6 42 5.7 94 94 ESE 9 15 30.09 1019 10 16.0934 0 0
2:35 am 02:35 Partly Cloudy with Light Rain 44 6.7 42 5.7 93 93 SE 8 13 30.09 1019 10 16.0934 0 0
2:55 am 02:55 Mostly Cloudy with Light Drizzle 44 6.7 42 5.7 93 93 SE 8 13 30.09 1019 10 16.0934 0.01 0.254
3:15 am 03:15 Cloudy with Light Rain 44 6.6 42 5.7 94 94 SE 9 15 30.06 1018 10 16.0934 0.01 0.254
3:35 am 03:35 Mostly Cloudy with Light Drizzle 44 6.6 42 5.7 94 94 ESE 10 17 30.06 1018 10 16.0934 0.01 0.254
3:55 am 03:55 Mostly Cloudy with Light Rain 44 6.7 42 5.7 93 93 ESE 12 19 30.06 1018 10 16.0934 0.03 0.762
4:15 am 04:15 Mostly Cloudy 44 6.9 42 5.7 92 92 ESE 10 17 30.06 1018 10 16.0934 0 0
4:35 am 04:35 Cloudy 45 7 42 5.6 91 91 ESE 10 17 30.06 1018 10 16.0934 0 0
4:55 am 04:55 Mostly Cloudy 45 7 42 5.6 91 91 ESE 12 19 30.03 1017 10 16.0934 0 0
5:15 am 05:15 Mostly Cloudy 45 7 42 5.7 92 92 ESE 12 19 30.03 1017 10 16.0934 0 0
5:35 am 05:35 Mostly Cloudy with Drizzle 45 7 42 5.8 92 92 ESE 10 17 30.03 1017 10 16.0934 0 0
5:55 am 05:55 Cloudy with Rain 45 7 43 6 93 93 ESE 10 17 30.06 1018 7 11.26538 0.01 0.254
6:15 am 06:15 Cloudy with Light Rain 45 7 43 6.1 94 94 ESE 8 13 30.06 1018 10 16.0934 0.01 0.254
6:35 am 06:35 Cloudy with Light Drizzle 45 7 43 6.2 95 95 ESE 12 19 30.06 1018 7 11.26538 0.01 0.254
6:55 am 06:55 Cloudy 45 7.1 43 6.3 95 95 ESE 12 19 30.06 1018 10 16.0934 0.01 0.254
7:15 am 07:15 Cloudy 45 7.2 44 6.5 95 95 ESE 9 15 30.06 1018 10 16.0934 0 0
7:35 am 07:35 Cloudy 45 7.2 44 6.5 95 95 SE 13 20 30.06 1018 10 16.0934 0 0
7:55 am 07:55 Cloudy with Drizzle 46 7.5 44 6.5 93 93 ESE 10 17 30.06 1018 5 8.0467 0 0
8:15 am 08:15 Cloudy with Light Rain 46 7.5 44 6.6 94 94 ESE 12 19 30.06 1018 4 6.43736 0.04 1.016
8:35 am 08:35 Cloudy with Light Rain 46 7.6 44 6.8 95 95 ESE 12 19 30.06 1018 4 6.43736 0.07 1.778
8:55 am 08:55 Cloudy with Light Rain 46 8 45 7.1 94 94 ESE 13 20 30.06 1018 10 16.0934 0.08 2.032
9:15 am 09:15 Cloudy with Light Drizzle 46 8 45 7 93 93 ESE 12 19 30.06 1018 7 11.26538 0 0
9:35 am 09:35 Cloudy with Light Drizzle 47 8.1 45 7.1 93 93 ESE 10 17 30.06 1018 7 11.26538 0.01 0.254
9:55 am 09:55 Cloudy with Mist and Fog 47 8.2 45 7.1 93 93 E 13 20 30.06 1018 5 8.0467 0.01 0.254
10:15 am 10:15 Cloudy with Mist and Fog 47 8.3 45 7.2 93 93 E 13 20 30.06 1018 4 6.43736 0 0
10:35 am 10:35 Cloudy with Mist and Fog 47 8.3 45 7.2 93 93 E 9 15 30.09 1019 4 6.43736 0 0
10:55 am 10:55 Cloudy with Mist and Fog 47 8.3 45 7.2 93 93 E 9 15 30.09 1019 4 6.43736 0 0
11:35 am 11:35 Cloudy with Mist and Fog 47 8.6 46 7.5 93 93 E 9 15 30.09 1019 3 4.82802 0 0
11:55 am 11:55 Cloudy with Mist and Fog 47 8.6 46 7.6 94 94 E 12 19 30.09 1019 3 4.82802 0 0
12:15 pm 12:15 Cloudy with Mist and Fog 48 8.7 46 7.7 94 94 E 12 19 30.09 1019 4 6.43736 0 0
12:35 pm 12:35 Cloudy with Light Rain 47 8.6 46 7.6 94 94 E 9 15 30.09 1019 1.75 2.816345 0 0
12:55 pm 12:55 Cloudy with Light Rain 48 8.8 46 7.8 94 94 ENE 12 19 30.09 1019 3 4.82802 0.01 0.254
1:15 pm 13:15 Cloudy with Mist and Fog 48 9 46 8 94 94 E 12 19 30.09 1019 3 4.82802 0 0
1:35 pm 13:35 Cloudy with Mist and Fog 49 9.3 47 8.3 94 94 ENE 14 22 30.06 1018 4 6.43736 0 0
1:55 pm 13:55 Cloudy with Mist and Fog 49 9.4 47 8.3 93 93 ENE 13 20 30.06 1018 5 8.0467 0 0
2:15 pm 14:15 Cloudy 49 9.2 47 8.1 93 93 ENE 20 31 30.06 1018 7 11.26538 0 0
2:35 pm 14:35 Cloudy 49 9.2 46 7.6 90 90 ENE 21 33 30.06 1018 10 16.0934 0 0
2:55 pm 14:55 Mostly Cloudy 51 10.4 47 8.6 89 89 ENE 15 24 30.03 1017 10 16.0934 0 0
3:15 pm 15:15 Mostly Cloudy with Nearby Thunderstorms 50 9.9 46 7.6 86 86 ENE 17 28 30.03 1017 10 16.0934 0 0
3:35 pm 15:35 Mostly Cloudy 50 9.9 46 7.6 86 86 NE 17 28 30.03 1017 10 16.0934 0 0
3:55 pm 15:55 Cloudy 49 9.6 45 7.3 86 86 ENE 18 30 30.03 1017 10 16.0934 0 0
4:15 pm 16:15 Cloudy 49 9.5 46 7.5 87 87 ENE 16 26 30.03 1017 10 16.0934 0 0
4:35 pm 16:35 Mostly Cloudy 49 9.2 45 7.3 88 88 ENE 15 24 30.06 1018 10 16.0934 0 0
4:55 pm 16:55 Cloudy 49 9.3 46 7.8 90 90 ENE 14 22 30.06 1018 10 16.0934 0 0
5:15 pm 17:15 Mostly Cloudy 49 9.2 46 7.6 90 90 ENE 14 22 30.09 1019 10 16.0934 0 0
5:35 pm 17:35 Mostly Cloudy 48 9 45 7.3 89 89 ENE 12 19 30.09 1019 10 16.0934 0 0
5:55 pm 17:55 Mostly Cloudy with Nearby Thunderstorms 48 9 45 7.4 90 90 ENE 14 22 30.09 1019 4 6.43736 0 0
6:15 pm 18:15 Cloudy 47 8.6 46 7.5 93 93 ENE 13 20 30.09 1019 7 11.26538 0 0
6:35 pm 18:35 Mostly Cloudy 48 8.7 46 7.7 94 94 ENE 16 26 30.09 1019 10 16.0934 0 0
6:55 pm 18:55 Mostly Cloudy 48 8.9 46 7.6 92 92 ENE 20 31 30.06 1018 10 16.0934 0 0
7:15 pm 19:15 Mostly Cloudy 48 9.1 46 7.6 90 90 NE 18 30 30.06 1018 10 16.0934 0 0
7:35 pm 19:35 Mostly Cloudy 49 9.2 45 7.4 89 89 NE 18 30 30.09 1019 10 16.0934 0 0
7:55 pm 19:55 Cloudy 48 9 45 7.2 89 89 NE 14 22 30.09 1019 10 16.0934 0 0
8:15 pm 20:15 Cloudy 48 9.1 46 7.5 90 90 NE 14 22 30.09 1019 10 16.0934 0 0
8:35 pm 20:35 Cloudy 48 9.1 45 7.3 89 89 NE 13 20 30.12 1020 10 16.0934 0 0
8:55 pm 20:55 Cloudy 48 9 45 7.4 90 90 NE 10 17 30.12 1020 10 16.0934 0 0
9:15 pm 21:15 Cloudy with Nearby Thunderstorms 48 9 45 7.4 90 90 NE 9 15 30.15 1021 10 16.0934 0 0
9:35 pm 21:35 Cloudy 48 8.7 45 7.3 91 91 NE 8 13 30.15 1021 10 16.0934 0 0
9:55 pm 21:55 Cloudy 47 8.5 45 7.3 92 92 NE 13 20 30.15 1021 7 11.26538 0 0
10:15 pm 22:15 Cloudy with Mist and Fog 47 8.3 45 7.3 93 93 NE 13 20 30.15 1021 5 8.0467 0 0
10:35 pm 22:35 Cloudy 47 8.4 46 7.5 94 94 NE 9 15 30.15 1021 10 16.0934 0 0
10:55 pm 22:55 Cloudy 47 8.5 46 7.5 94 94 NE 8 13 30.15 1021 10 16.0934 0 0
11:15 pm 23:15 Cloudy 47 8.6 46 7.5 93 93 NE 10 17 30.15 1021 10 16.0934 0 0
11:35 pm 23:35 Cloudy 47 8.6 45 7.1 90 90 NE 9 15 30.15 1021 10 16.0934 0 0
11:55 pm 23:55 Cloudy 48 8.7 45 7.3 91 91 NE 9 15 30.15 1021 10 16.0934 0 0

Powered by AerisWeather